SL-8 DEB, 43117

Orbit data source: Space-Track

SL-8 DEB, 43117 is space debris in LEO originally from a launch on Tue, 21 Jun 1988 UTC launched from the Plesetsk Missile And Space Complex (PKMTR). Debris objects in space refer to the collection of defunct objects orbiting the Earth. Examples of debris include non-operational satellites, rocket bodies, and fragments generated from explosions, collisions, or faulty payload assembly.

Loading next visibility...
Identifier
43117, 1988-053E
Orbit
LEO
Country
Flag of CISCIS
Related business
Manufacturer
Unknown
Mission
Spacecraft
Bus & Motor
Unknown
Mass
Unknown
Launch date (UTC)
1988-06-21 (38 years ago)
Launch vehicle
Unknown
Launch site
Plesetsk Missile And Space Complex (PKMTR)
Object type
Payload
Rocket body
Debris
Shape & HBR
Unknown shape, 0.1 m
Radar Cross Section
Small (<0.1 m²)

Expand to show TLE details & history
Last TLE update: 3 days ago

TLE from 3 days ago
0 SL-8 DEB
1 43117U 88053E   26170.08728186  .00000132  00000-0  51839-4 0  9992
2 43117  74.0518 300.2016 0019279  92.3804 267.9558 14.38203715443613
Epoch: 2026-06-19T02:05Z
TLE epoch observation values (Epoch: 2026-06-19T02:05:41.152Z)
Latitude
-0°
Longitude
1.45884°
Altitude
767.572 km
Speed
7.47 km/s
True Right ascension
20h 00m 48s
True Declination
0° 00' 00"
Sunlit
Object was in full shadow at epoch
Visualization orbit readout
Latitude
Unknown
Longitude
Unknown
Altitude
Unknown
Speed
Unknown
Apparent Right ascension
Unknown
Apparent Declination
Unknown
Sunlit
N/A
Visualization observer readout
Local Sidereal Time
21:31:30
Azimuth
Unknown
Elevation
Unknown
Doppler factor
Unknown
Orbital elements
Apogee altitude
775.825 km
Perigee altitude
748.294 km
Semi-major axis
7,140.197 km
Eccentricity
0.00193
Inclination
74.0518°
RAAN
300.2016°
Arg. of periapsis
92.3804°
True anomaly
267.73504°
Mean anomaly
267.9558°
Eccentric anomaly
267.84542°
Mean motion
3.59731 °/min
Orbital period
100.07 mins
BSTAR
0.000051839
Loading maneuver chart data...
Computing Atmospheric mass density...
Loading historical data...
Loading historical data...
Loading historical data...
Loading historical data...
Loading historical data...
Loading historical data...
Loading historical data...
Other satellites on launch #53 in the year 1988 (1988-06-21 UTC)

Documentation

Showing up to 5 results
|